This demonstration page uses our WeatherBlox Daily Observations layout. Learn more.

Left ArrowRight Arrow

Hourly Observations for July 13, 2016

Temp ( °F °C ) Dew Point ( °F °C ) Humidity (%) Winds ( mph kmh ) Pressure ( in mb ) Visibility ( mi km ) Precip ( " mm )
12:59 am 00:59 Partly Cloudy 79 26.1 74 23.3 85 85 SE 5 7 30.08 1019 10 16 0.00 0.00
1:59 am 01:59 Partly Cloudy 79 26.1 74 23.3 85 85 SE 6 9 30.08 1019 10 16 0.00 0.00
2:59 am 02:59 Partly Cloudy 78 25.6 75 23.9 90 90 SSE 6 9 30.06 1018 9 14 0.00 0.00
3:59 am 03:59 Partly Cloudy 78 25.6 75 23.9 90 90 SE 5 7 30.04 1017 9 14 0.00 0.00
4:59 am 04:59 Partly Cloudy 78 25.6 75 23.9 90 90 Calm 30.04 1017 8 13 0.00 0.00
5:59 am 05:59 Mostly Cloudy 78 25.6 75 23.9 90 90 SSW 3 6 30.05 1018 7 11 0.00 0.00
6:59 am 06:59 Partly Cloudy 78 25.6 73 22.8 85 85 WSW 8 13 30.05 1018 8 13 0.00 0.00
7:59 am 07:59 Partly Cloudy 79 26.1 73 22.8 82 82 SW 6 9 30.06 1018 9 14 0.00 0.00
8:59 am 08:59 Partly Cloudy 82 27.8 74 23.3 77 77 SW 6 9 30.07 1018 10 16 0.00 0.00
9:59 am 09:59 Partly Cloudy 86 30 74 23.3 67 67 SSW 5 7 30.06 1018 10 16 0.00 0.00
12:59 pm 12:59 Partly Cloudy 88 31.1 73 22.8 61 61 VRB 6 9 30.04 1017 10 16 0.00 0.00
2:59 pm 14:59 Partly Cloudy 91 32.8 73 22.8 56 56 WSW 8 13 30.01 1016 10 16 0.00 0.00
3:59 pm 15:59 Partly Cloudy 91 32.8 72 22.2 54 54 WNW 10 17 30.01 1016 10 16 0.00 0.00
4:59 pm 16:59 Partly Cloudy 91 32.8 72 22.2 54 54 WNW 9 15 30.01 1016 10 16 0.00 0.00
5:59 pm 17:59 Partly Cloudy 90 32.2 73 22.8 58 58 W 9 15 29.99 1016 10 16 0.00 0.00
6:59 pm 18:59 Mostly Cloudy 90 32.2 73 22.8 58 58 W 9 15 29.98 1015 10 16 0.00 0.00
7:59 pm 19:59 Partly Cloudy 86 30 74 23.3 67 67 SSW 5 7 30.00 1016 9 14 0.00 0.00
8:59 pm 20:59 Mostly Clear 83 28.3 75 23.9 77 77 S 5 7 29.98 1015 10 16 0.00 0.00
9:59 pm 21:59 Mostly Clear 82 27.8 74 23.3 77 77 SSW 3 6 29.98 1015 9 14 0.00 0.00
10:59 pm 22:59 Partly Cloudy 83 28.3 74 23.3 74 74 SW 7 11 30.01 1016 10 16 0.00 0.00
11:59 pm 23:59 Mostly Clear 81 27.2 73 22.8 77 77 WSW 3 6 30.01 1016 10 16 0.00 0.00

Powered by AerisWeather